[[{"header":{"parameterUnit":"m.s-1","parameterCategory":1,"la1":30.2991,"la2":30.254,"lo1":-89.0895,"lo2":-89.0444,"dy":0.0017,"dx":0.0017,"nx":28,"ny":28,"refTime":"2024-08-07T09:00:00:Z","depth":0,"parameterNumber":2,"parameterNumberName":"U-component_of_WINDS"},"data":[0,0,0,0,0,0,0,0,0,0,0,0,0,0,0,0,0,0,0,0,0,0,0,0,0,0,0,0,0,0,0,0,0,0,0,0,0,0,0,0,0,0,0,0,0,0,0,0,0,0,0,0,0,0,0,0,0,0,2.5497,2.5498,0,2.5574,2.5575,2.5576,2.5541,2.5539,2.5537,2.5535,2.5618,2.5622,2.5626,0,0,0,0,0,0,0,0,0,0,0,0,0,2.5327,2.5331,2.5497,2.5498,2.5499,2.5574,2.5575,2.5576,2.5541,2.5539,2.5537,2.5534,2.5617,2.5622,2.5627,0,0,0,0,0,0,0,0,0,0,0,0,0,2.5403,2.5332,2.5497,2.5491,2.5491,2.5574,2.5575,2.5576,2.5542,2.5539,2.5536,2.5533,2.5616,2.5621,2.5627,2.5722,0,0,2.5646,2.5648,0,0,0,0,0,0,0,0,2.5398,2.5409,2.5491,2.5491,2.5492,2.5545,2.5546,2.5625,2.5542,2.5523,2.5535,2.5532,2.5597,2.5604,2.5625,2.5726,2.573,2.5646,2.565,2.5652,2.5654,0,0,0,0,0,0,0,2.5393,2.5405,2.5528,2.5492,2.5492,2.5486,2.5494,2.5561,2.5575,2.5524,2.5522,2.5531,2.5596,2.5619,2.5627,2.5731,2.5646,2.5651,2.5655,2.5657,2.5921,2.5924,0,0,0,0,0,0,2.5387,2.5401,2.5525,2.553,2.5437,2.5492,2.55,2.5531,2.5574,2.5578,2.5533,2.5529,2.561,2.562,2.5629,2.5747,2.5652,2.5658,2.5661,2.5917,2.5921,2.5925,0,0,0,0,0,0,2.5384,2.5399,2.5522,2.5465,2.548,2.5498,2.5532,2.5534,2.5556,2.5581,2.5584,2.5554,2.5608,2.5621,2.5701,2.575,2.5661,2.5666,2.5913,2.5918,2.5923,2.5982,0,0,0,0,0,0,2.5379,2.5398,2.5432,2.5466,2.5483,2.559,2.5535,2.5537,2.5566,2.5562,2.5601,2.5605,2.5607,2.5692,2.5707,2.5756,2.5671,2.5909,2.5916,2.5921,2.5975,2.5988,2.5999,0,0,0,0,0,2.5373,2.5445,2.5434,2.5449,2.5526,2.5592,2.5603,2.5603,2.557,2.5607,2.5624,2.5603,2.5742,2.57,2.5716,2.5769,2.5906,2.5914,2.5921,2.597,2.5986,2.5999,0,0,0,0,0,0,2.5416,2.5449,2.5437,2.5521,2.5555,2.5586,2.5632,2.5618,2.5662,2.5656,2.5655,2.5665,2.5748,2.5766,2.5719,2.5866,2.5819,2.583,2.5851,2.5866,2.5877,2.5872,2.5676,0,0,0,0,0,2.5435,2.5484,2.5511,2.5584,2.5601,2.5614,2.5642,2.564,2.5675,2.5689,2.5711,2.5747,2.5799,2.5833,2.5882,2.5978,2.5989,2.6023,2.6034,2.6044,2.6054,2.6111,2.6128,2.595,2.595,2.595,0,0,2.5476,2.55,2.5531,2.5593,2.5618,2.5672,2.5626,2.5683,2.5724,2.5698,2.5775,2.5793,2.5834,2.5923,2.5964,2.5941,2.6106,2.6053,2.6061,2.6066,2.6121,2.6138,2.6153,2.5955,2.5954,2.5953,0,0,2.5577,2.5599,2.5664,2.5691,2.573,2.5739,2.5754,2.5789,2.5801,2.5878,2.5861,2.5911,2.5999,2.603,2.6057,2.6176,2.6162,2.6192,2.6254,2.631,2.6324,2.6337,2.6383,2.6399,2.6202,2.6202,2.6202,0,2.5623,2.5701,2.5699,2.576,2.5789,2.5768,2.5836,2.5863,2.5916,2.5939,2.5912,2.6026,2.6051,2.615,2.618,2.6201,2.6223,2.6188,2.6322,2.6335,2.6346,2.6391,2.6408,2.6206,2.6206,2.6205,2.6205,0,2.5758,2.5813,2.5861,2.5914,2.5949,2.6013,2.6023,2.606,2.6055,2.6068,2.615,2.6181,2.6238,2.6261,2.6256,2.6361,2.6346,2.6321,2.6274,2.6367,2.6409,2.6426,2.6211,2.621,2.6209,2.6208,0,0,2.5887,2.594,2.5958,2.5984,2.6027,2.6071,2.6137,2.6192,2.6225,2.6264,2.6321,2.6399,2.6377,2.6408,2.6408,2.6457,2.6555,2.6426,2.6427,2.6452,2.6677,2.6698,2.6717,2.6545,2.6548,2.655,2.6675,0,2.5994,2.6106,2.6108,2.6213,2.6267,2.6249,2.6307,2.6342,2.6357,2.6407,2.6424,2.648,2.6445,2.6465,2.6512,2.6533,2.66,2.6523,2.6602,2.6604,2.6594,2.6738,2.6759,2.6874,2.6691,2.6693,2.6695,0,2.6134,2.6178,2.6288,2.6328,2.6351,2.6402,2.6456,2.6502,2.6543,2.6551,2.6589,2.6582,2.6653,2.6603,2.6703,2.6651,2.6684,2.6699,2.6704,2.6713,2.6657,2.6754,2.6911,2.693,2.672,2.6718,2.6717,0,2.6221,2.6308,2.6386,2.6409,2.6456,2.6494,2.6516,2.6554,2.6589,2.6636,2.666,2.6715,2.6746,2.6791,2.6802,2.6764,2.6903,2.6853,2.6915,2.6915,2.6946,2.6944,2.7114,2.6963,2.6963,2.6962,2.6962,0,2.6342,2.6411,2.6427,2.6475,2.6554,2.6557,2.6635,2.6655,2.669,2.6745,2.6733,2.6785,2.6795,2.685,2.6859,2.6943,2.6956,2.6968,2.697,2.697,2.6969,2.6993,2.6986,2.6967,2.6966,2.6965,2.6964,0,2.6453,2.6466,2.6551,2.6591,2.6602,2.6659,2.6694,2.6743,2.6757,2.6827,2.6843,2.6867,2.6932,2.6947,2.7024,2.7031,2.7132,2.7124,2.7118,2.7118,2.718,2.7176,2.7372,2.74,2.7229,2.723,2.7232,0,2.653,2.6583,2.6629,2.6665,2.6689,2.6746,2.6782,2.6789,2.6827,2.6881,2.6924,2.6988,2.7039,2.7144,2.7171,2.7231,2.7227,2.7292,2.7236,2.7237,2.7233,2.723,2.7238,2.7303,2.7305,2.7307,2.7308,0,2.6668,2.6673,2.6724,2.678,2.6823,2.6867,2.6909,2.6939,2.6953,2.6997,2.7063,2.7103,2.7184,2.7249,2.731,2.7336,2.7327,2.7325,2.7344,2.7346,2.7341,2.7348,2.715,2.7321,2.732,2.7319,2.7318,2.7317,2.6767,2.6815,2.6856,2.6915,2.6948,2.6988,2.7037,2.7059,2.7114,2.7179,2.718,2.7254,2.7299,2.7381,2.7411,2.7471,2.7451,2.7476,2.7483,2.749,2.7498,2.733,2.7482,2.7481,2.7481,2.7481,2.748,0,2.6906,2.6933,2.6987,2.7047,2.7095,2.708,2.7127,2.7169,2.7234,2.7276,2.7327,2.7406,2.7471,2.7503,2.7568,2.761,2.7608,2.7627,2.7626,2.7633,2.7509,2.7489,2.7629,2.7629,2.7629,2.7628,2.7628,2.7628,2.6985,2.7067,2.7077,2.7177,2.7204,2.7275,2.7304,2.7343,2.7377,2.7466,2.7519,2.7539,2.7579,2.7648,2.7708,2.7716,2.7742,2.7765,2.7771,2.7656,2.7641,2.7626,2.7607,2.777,2.777,2.789,2.7891,2.7892]},{"header":{"parameterUnit":"m.s-1","parameterCategory":1,"la1":30.2991,"la2":30.254,"lo1":-89.0895,"lo2":-89.0444,"dy":0.0017,"dx":0.0017,"nx":28,"ny":28,"refTime":"2024-08-07T09:00:00:Z","depth":0,"parameterNumber":3,"parameterNumberName":"V-component_of_WINDS"},"data":[0,0,0,0,0,0,0,0,0,0,0,0,0,0,0,0,0,0,0,0,0,0,0,0,0,0,0,0,0,0,0,0,0,0,0,0,0,0,0,0,0,0,0,0,0,0,0,0,0,0,0,0,0,0,0,0,0,0,-0.6195,-0.6193,0,-0.6002,-0.6,-0.5998,-0.5985,-0.5987,-0.5989,-0.5991,-0.5783,-0.5776,-0.5768,0,0,0,0,0,0,0,0,0,0,0,0,0,-0.6544,-0.6537,-0.6196,-0.6193,-0.6191,-0.6003,-0.6,-0.5997,-0.5984,-0.5987,-0.599,-0.5992,-0.5786,-0.5777,-0.5768,0,0,0,0,0,0,0,0,0,0,0,0,0,-0.6375,-0.6535,-0.6196,-0.6162,-0.6157,-0.6003,-0.6,-0.5996,-0.5984,-0.5987,-0.599,-0.5993,-0.5789,-0.5778,-0.5766,-0.563,0,0,-0.5732,-0.5727,0,0,0,0,0,0,0,0,-0.6385,-0.6363,-0.6169,-0.6164,-0.6158,-0.6021,-0.6046,-0.5873,-0.5983,-0.6049,-0.5991,-0.5995,-0.5859,-0.5842,-0.5798,-0.5621,-0.5612,-0.5731,-0.5724,-0.5719,-0.5716,0,0,0,0,0,0,0,-0.6397,-0.6371,-0.6119,-0.6166,-0.6159,-0.6153,-0.6133,-0.6014,-0.5938,-0.6044,-0.6042,-0.602,-0.5856,-0.5809,-0.5793,-0.5609,-0.5731,-0.5721,-0.5714,-0.5709,-0.5308,-0.5304,0,0,0,0,0,0,-0.6416,-0.6381,-0.6125,-0.6113,-0.6282,-0.6144,-0.6121,-0.6062,-0.5939,-0.5924,-0.6017,-0.602,-0.5827,-0.5807,-0.5786,-0.5617,-0.5719,-0.5708,-0.5702,-0.5312,-0.5307,-0.5303,0,0,0,0,0,0,-0.6424,-0.6394,-0.6133,-0.6246,-0.6213,-0.6135,-0.6067,-0.6056,-0.6009,-0.5919,-0.5905,-0.5984,-0.5829,-0.5802,-0.567,-0.561,-0.5703,-0.5693,-0.5316,-0.531,-0.5305,-0.528,0,0,0,0,0,0,-0.6434,-0.6396,-0.6346,-0.6246,-0.6207,-0.6022,-0.6064,-0.605,-0.599,-0.5992,-0.5884,-0.5869,-0.5829,-0.5687,-0.5658,-0.5596,-0.5684,-0.5321,-0.5314,-0.5307,-0.5285,-0.5274,-0.5264,0,0,0,0,0,-0.6446,-0.6345,-0.6344,-0.6313,-0.6143,-0.6019,-0.5996,-0.5956,-0.5986,-0.5933,-0.5875,-0.5872,-0.5622,-0.5673,-0.5641,-0.5574,-0.5325,-0.5316,-0.5307,-0.529,-0.5276,-0.5264,0,0,0,0,0,0,-0.6437,-0.6331,-0.6328,-0.6192,-0.6115,-0.6017,-0.5949,-0.5942,-0.5852,-0.5857,-0.5808,-0.5783,-0.5652,-0.56,-0.5659,-0.5436,-0.5476,-0.5461,-0.5474,-0.546,-0.5449,-0.5463,-0.5675,0,0,0,0,0,-0.642,-0.6331,-0.6242,-0.613,-0.6092,-0.6027,-0.5972,-0.5948,-0.5864,-0.583,-0.5763,-0.568,-0.5582,-0.5518,-0.5424,-0.5279,-0.5253,-0.5217,-0.5206,-0.5198,-0.5184,-0.5101,-0.5083,-0.5275,-0.5275,-0.5275,0,0,-0.6381,-0.6313,-0.6259,-0.6126,-0.6064,-0.597,-0.6,-0.5899,-0.5828,-0.5814,-0.5685,-0.5633,-0.5536,-0.5397,-0.5332,-0.535,-0.5126,-0.5187,-0.5181,-0.5171,-0.5091,-0.5073,-0.5056,-0.5269,-0.527,-0.5271,0,0,-0.6263,-0.6204,-0.6103,-0.6041,-0.5947,-0.5905,-0.5881,-0.5784,-0.575,-0.5621,-0.5608,-0.5522,-0.5355,-0.5286,-0.5229,-0.5087,-0.5079,-0.5057,-0.4999,-0.4919,-0.4904,-0.4891,-0.4837,-0.4819,-0.5044,-0.5044,-0.5044,0,-0.6226,-0.6088,-0.6052,-0.5952,-0.5892,-0.588,-0.5775,-0.5715,-0.5594,-0.5552,-0.5575,-0.5365,-0.5299,-0.5143,-0.5108,-0.5064,-0.5032,-0.5068,-0.491,-0.4896,-0.4882,-0.4831,-0.4811,-0.5042,-0.5042,-0.5042,-0.5043,0,-0.6046,-0.595,-0.5879,-0.5766,-0.5699,-0.5597,-0.5543,-0.5479,-0.5461,-0.5416,-0.5283,-0.5204,-0.5093,-0.5054,-0.5034,-0.4894,-0.4908,-0.4921,-0.496,-0.4863,-0.4813,-0.4793,-0.5039,-0.504,-0.504,-0.5041,0,0,-0.5914,-0.5784,-0.5758,-0.5706,-0.5602,-0.5525,-0.5422,-0.5317,-0.5261,-0.5178,-0.5088,-0.4949,-0.496,-0.4896,-0.4868,-0.4799,-0.4688,-0.482,-0.4817,-0.4796,-0.4525,-0.4514,-0.4492,-0.4684,-0.468,-0.4677,-0.4533,0,-0.5782,-0.5602,-0.5567,-0.5408,-0.5318,-0.5305,-0.5214,-0.5139,-0.5094,-0.5008,-0.4958,-0.4858,-0.4883,-0.4843,-0.4774,-0.4716,-0.4632,-0.4726,-0.4596,-0.4592,-0.4618,-0.4467,-0.4454,-0.4322,-0.4513,-0.451,-0.4508,0,-0.5604,-0.552,-0.5354,-0.5262,-0.5222,-0.5142,-0.5042,-0.4961,-0.4875,-0.4847,-0.4776,-0.4757,-0.4646,-0.4693,-0.4538,-0.4603,-0.4547,-0.4511,-0.4504,-0.4488,-0.4542,-0.4443,-0.4279,-0.4258,-0.4477,-0.448,-0.4482,0,-0.5521,-0.5367,-0.5247,-0.5203,-0.5093,-0.5037,-0.4988,-0.4905,-0.4844,-0.4756,-0.4715,-0.4614,-0.4557,-0.4478,-0.4431,-0.447,-0.4278,-0.4322,-0.4248,-0.4249,-0.4206,-0.4209,-0.4027,-0.4175,-0.4176,-0.4176,-0.4177,0,-0.5376,-0.5274,-0.5208,-0.5134,-0.5019,-0.4978,-0.4864,-0.4815,-0.4742,-0.4656,-0.4638,-0.4557,-0.4501,-0.4411,-0.4373,-0.4248,-0.4224,-0.4195,-0.4186,-0.4195,-0.4198,-0.4156,-0.4162,-0.4171,-0.4172,-0.4173,-0.4174,0,-0.5263,-0.5215,-0.5083,-0.4992,-0.4966,-0.4885,-0.4804,-0.473,-0.4687,-0.4577,-0.4549,-0.4479,-0.4372,-0.4318,-0.4184,-0.4159,-0.4018,-0.4015,-0.4048,-0.4043,-0.3972,-0.3978,-0.3754,-0.3721,-0.3895,-0.3893,-0.3892,0,-0.5172,-0.5094,-0.4995,-0.4937,-0.4888,-0.4796,-0.4734,-0.4691,-0.4626,-0.4523,-0.446,-0.4354,-0.4266,-0.4095,-0.403,-0.3927,-0.392,-0.3849,-0.3904,-0.3915,-0.3915,-0.3919,-0.391,-0.3838,-0.3836,-0.3835,-0.3834,0,-0.5015,-0.4996,-0.4909,-0.4813,-0.4741,-0.4663,-0.4585,-0.4539,-0.4483,-0.4411,-0.4304,-0.4236,-0.4101,-0.3993,-0.3886,-0.3832,-0.3821,-0.3818,-0.3794,-0.3801,-0.3822,-0.3807,-0.4018,-0.3822,-0.3823,-0.3824,-0.3824,-0.3825,-0.4908,-0.4837,-0.4757,-0.466,-0.4598,-0.4527,-0.4453,-0.4401,-0.4312,-0.42,-0.418,-0.4065,-0.3979,-0.3835,-0.3778,-0.3685,-0.37,-0.3668,-0.3659,-0.365,-0.3646,-0.3841,-0.3666,-0.3666,-0.3666,-0.3667,-0.3667,0,-0.4747,-0.4696,-0.4608,-0.4502,-0.4425,-0.4428,-0.4342,-0.4277,-0.4177,-0.41,-0.4015,-0.389,-0.3787,-0.3715,-0.3608,-0.3548,-0.354,-0.3521,-0.3523,-0.351,-0.364,-0.3669,-0.3529,-0.3529,-0.3529,-0.3529,-0.3529,-0.3529,-0.4655,-0.4535,-0.4506,-0.4355,-0.4302,-0.4192,-0.4143,-0.4076,-0.4014,-0.3877,-0.3792,-0.3748,-0.3671,-0.356,-0.3464,-0.3445,-0.3405,-0.3385,-0.3366,-0.3487,-0.3502,-0.3515,-0.3543,-0.3378,-0.3378,-0.3244,-0.3243,-0.3242]}]]